Weather History for Harrison, AR

Change the Weather History Date:

Thursday, January 24, 2013

  Actual Average Record
Temperature  
Mean Temperature 34 °F 37 °F  
Max Temperature 42 °F 47 °F 81 °F (1943)
Min Temperature 26 °F 27 °F -2 °F (1930)
Degree Days  
Heating Degree Days 31 28  
Month to date heating degree days 663 692  
Since 1 July heating degree days 2071 2291  
Cooling Degree Days 0 0  
Month to date cooling degree days 0 0  
Year to date cooling degree days 0 0  
Moisture  
Dew Point 17 °F    
Average Humidity 57    
Maximum Humidity 75    
Minimum Humidity 38    
Precipitation  
Precipitation 0.00 in 0.08 in 3.60 in (1929)
Month to date precipitation 1.27 2.00  
Year to date precipitation 1.27 2.00  
Snow  
Snow 0.00 in 0.20 in 1.50 in (1948)
Month to date snowfall T 3.0  
Since 1 July snowfall 0.3 4.8  
Snow Depth 0.00 in    
Sea Level Pressure  
Sea Level Pressure 30.29 in    
Wind  
Wind Speed 11 mph (East)    
Max Wind Speed 20 mph    
Max Gust Speed 25 mph    
Visibility 10 miles    
Events      
T = Trace of Precipitation, MM = Missing Value Source: NWS Daily Summary

Daily Weather History Graph

Daily Weather History Graph

Search for Another Location

Airport:

Trip Planner

Search our weather history database for the weather conditions in past years. The results will help you decide how hot, cold, wet, or windy it might be!

Date:

Astronomy

Jan. 24, 2013 Rise Set
Actual Time 7:19 AM CST 5:30 PM CST
Civil Twilight 6:51 AM CST 5:58 PM CST
Nautical Twilight 6:20 AM CST 6:29 PM CST
Astronomical Twilight 5:49 AM CST 7:00 PM CST
Moon 3:34 PM CST (1/24) 5:15 AM CST (1/24)
Length of Visible Light 11h 06m
Length of Day
10h 11m
Waxing Gibbous, 94% of the Moon is Illuminated
Jan 24
Waxing Gibbous
Jan 26
Full
Feb 3
Last Quarter
Feb 10
New
Feb 17
First Quarter

Hourly Weather History & Observations

Time (CST) Temp. Windchill Dew Point Humidity Pressure Visibility Wind Dir Wind Speed Gust Speed Precip Events Conditions
12:53 AM 39.9 °F 36.7 °F 30.9 °F 70% 30.27 in 10.0 mi NNE 4.6 mph - N/A   Overcast
1:53 AM 39.0 °F 34.8 °F 28.9 °F 67% 30.29 in 10.0 mi NNE 5.8 mph - N/A   Overcast
2:53 AM 37.9 °F 34.4 °F 27.0 °F 65% 30.30 in 10.0 mi NE 4.6 mph - N/A   Overcast
3:53 AM 37.0 °F 33.3 °F 25.0 °F 62% 30.31 in 10.0 mi NNE 4.6 mph - N/A   Overcast
4:53 AM 36.0 °F 31.1 °F 23.0 °F 59% 30.32 in 10.0 mi NE 5.8 mph - N/A   Overcast
5:11 AM 35.6 °F 27.5 °F 21.2 °F 56% 30.32 in 10.0 mi ENE 11.5 mph - N/A   Overcast
5:53 AM 34.0 °F 27.2 °F 19.9 °F 56% 30.34 in 10.0 mi NE 8.1 mph - N/A   Overcast
6:53 AM 33.1 °F 25.5 °F 18.0 °F 54% 30.35 in 10.0 mi East 9.2 mph - N/A   Overcast
7:53 AM 33.1 °F 26.9 °F 16.0 °F 50% 30.36 in 10.0 mi ENE 6.9 mph - N/A   Overcast
8:53 AM 33.1 °F 24.9 °F 15.1 °F 48% 30.37 in 10.0 mi East 10.4 mph - N/A   Overcast
9:53 AM 33.1 °F 24.4 °F 12.0 °F 42% 30.40 in 10.0 mi East 11.5 mph - N/A   Overcast
10:53 AM 33.1 °F 23.9 °F 10.9 °F 40% 30.39 in 10.0 mi ESE 12.7 mph - N/A   Overcast
11:53 AM 33.1 °F 23.4 °F 12.9 °F 43% 30.37 in 10.0 mi East 13.8 mph - N/A   Overcast
12:53 PM 33.1 °F 24.4 °F 14.0 °F 46% 30.33 in 10.0 mi East 11.5 mph 18.4 mph N/A   Overcast
1:53 PM 33.1 °F 24.4 °F 14.0 °F 46% 30.32 in 10.0 mi East 11.5 mph - N/A   Overcast
2:53 PM 33.1 °F 23.0 °F 12.9 °F 43% 30.28 in 10.0 mi ESE 15.0 mph - N/A   Overcast
3:53 PM 34.0 °F 26.0 °F 15.1 °F 46% 30.25 in 10.0 mi ESE 10.4 mph - N/A   Overcast
4:23 PM 33.8 °F 25.3 °F 15.8 °F 48% 30.24 in 10.0 mi ESE 11.5 mph - N/A   Overcast
4:37 PM 33.8 °F 24.8 °F 14.0 °F 44% 30.23 in 10.0 mi ESE 12.7 mph - N/A   Overcast
4:53 PM 34.0 °F 25.0 °F 15.1 °F 46% 30.25 in 10.0 mi ESE 12.7 mph - N/A   Overcast
5:53 PM 32.0 °F 21.2 °F 12.0 °F 44% 30.24 in 10.0 mi SE 16.1 mph 21.9 mph N/A   Overcast
6:53 PM 30.0 °F 17.9 °F 10.9 °F 45% 30.24 in 10.0 mi SE 18.4 mph 25.3 mph N/A   Overcast
7:53 PM 28.9 °F 17.7 °F 12.9 °F 51% 30.21 in 10.0 mi ESE 15.0 mph 24.2 mph N/A   Overcast
8:53 PM 28.9 °F 17.7 °F 14.0 °F 54% 30.22 in 10.0 mi ESE 15.0 mph 24.2 mph N/A   Overcast
9:53 PM 27.0 °F 15.6 °F 17.1 °F 66% 30.23 in 10.0 mi ESE 13.8 mph - N/A   Overcast
10:11 PM 26.6 °F 16.2 °F 17.6 °F 69% 30.18 in 10.0 mi ESE 11.5 mph - N/A   Overcast
10:53 PM 27.0 °F 16.1 °F 19.0 °F 72% 30.20 in 10.0 mi SE 12.7 mph - N/A   Overcast
11:53 PM 26.1 °F 15.6 °F 21.0 °F 81% 30.18 in 9.0 mi ESE 11.5 mph - N/A   Overcast